Location: Boiro
(42.6475°N, 8.8834°W)
Time: 13:44:08
(UTC+01:00)

Envisat - Pass Details

Date: 26 October 2021
Orbit: 764 x 766 km, 98.2° (Epoch: 07 December)

Event Time Altitude Azimuth Distance (km) Brightness Sun altitude
Rises 06:44:42 0° 26° (NNE) 3,241 6.7 -25.8°
Reaches altitude 10° 06:47:26 10° 40° (NE) 2,309 6.0 -25.3°
Maximum altitude 06:51:33 24° 94° (E) 1,535 5.3 -24.6°
Drops below altitude 10° 06:55:37 10° 148° (SSE) 2,294 5.8 -23.8°
Sets 06:58:19 0° 161° (SSE) 3,215 6.4 -23.3°
